Current Version              Previous Version:    01  02  03  04  05  06  07  08  09  10  11  12  13  14  15  16  17  18  19  20  21  22  23  24  25  26  27  28  29  30  
   31  32  33  34  35  36  37  38  39  40  41  42  43  44  45  46  47  48  49  50  51  52  53  54  55  56  57  58  59  60  

[Printable]
692
ASUS44 KFWD 020515
RWRTX
NORTH TEXAS HOURLY WEATHER ROUNDUP
NATIONAL WEATHER SERVICE FORT WORTH TX
1200 AM CDT TUE SEP 02 2014

NOTE: "FAIR" INDICATES FEW OR NO CLOUDS BELOW 12,000 FEET WITH NO
SIGNIFICANT WEATHER AND/OR OBSTRUCTIONS TO VISIBILITY.

TXZ118-119-020600-
DALLAS/FORT WORTH METROPLEX

CITY           SKY/WX    TMP DP  RH WIND       PRES   REMARKS
DFW AIRPORT    CLEAR     87  69  54 S15G25    29.87R HX  91
DALLAS LOVE    CLEAR     86  70  58 S18G29    29.88R HX  90
FTW MEACHAM    CLEAR     87  66  49 S17G26    29.87R
DAL-EXECUTIVE  CLEAR     86  70  58 S15G24    29.89S HX  90
FTW-ALLIANCE   CLEAR     86  65  49 S20       29.86R
FTW-NAS-JRB    CLEAR     89  65  44 S16       29.91R HX  91
FTW-SPINKS     CLEAR     85  66  52 S12G20    29.90S
ARLINGTON      CLEAR     86  68  54 SE14      29.89R
GRAND PRAIRIE  CLEAR     86  66  50 SE14G20   29.89S
ADDISON        CLEAR     87  68  53 S12G20    29.90R HX  90
MESQUITE       CLEAR     83  69  60 S12       29.90S
LANCASTER      CLEAR     84  69  61 S13       29.91R
$$

TXZ091>094-102>105-117-120-121-131>134-020600-
NORTH CENTRAL TEXAS

CITY           SKY/WX    TMP DP  RH WIND       PRES   REMARKS
SHRMAN/DENISON CLEAR     85  66  53 SE15      29.90R
GAINESVILLE    CLEAR     83  68  61 SE12      29.90R
BOWIE          CLEAR     84  67  58 S10       29.87R
BRIDGEPORT     CLEAR     86  64  47 S12G17    29.88S
DECATUR        CLEAR     85  65  51 S15       29.88S
DENTON         CLEAR     86  65  49 S18       29.87R
MCKINNEY       CLEAR     85  69  58 S14       29.89R
GREENVILLE     CLEAR     82  70  65 S10       29.92R
ROCKWALL       CLEAR     83  71  66 S9G17     29.89R
TERRELL        CLEAR     84  71  65 S13       29.91R
WAXAHACHIE     CLEAR     82  67  59 S10G16    29.92R
CLEBURNE       CLEAR     84  70  61 S10       29.91S
GRANBURY       CLEAR     88  68  50 SE15      29.89R HX  91
$$

TXZ083>090-098>101-113>116-127>130-139>142-154-155-020600-
WESTERN NORTH TEXAS

CITY           SKY/WX    TMP DP  RH WIND       PRES   REMARKS
WICHITA FALLS  CLEAR     87  66  49 S21G29    29.82R
WF-KICKAPOO    CLEAR     87  64  46 S15G25    29.84R
VERNON         CLEAR     88  64  43 S20       29.81R
ABILENE        CLEAR     87  62  43 S18       29.88S
ABILENE-DYESS  CLEAR     86  64  47 S18G31    29.87S
BRECKENRIDGE   CLEAR     88  63  43 S16G23    29.86S
GRAHAM         CLEAR     87  65  48 SE12G20   29.85R
MINERAL WELLS  CLEAR     85  67  54 S14       29.87R
STEPHENVILLE   CLEAR     84  67  57 S12G18    29.93S
COMANCHE         N/A     84  67  56 S14       29.91S
BROWNWOOD      MOCLDY    84  66  54 SE10      29.91S
COLEMAN        CLEAR     82  61  49 S8        29.91S
BRADY          CLEAR     81  63  54 SE8       29.94R
$$

TXZ143>147-156>162-174-175-020600-
CENTRAL TEXAS

CITY           SKY/WX    TMP DP  RH WIND       PRES   REMARKS
WACO           CLEAR     85  68  56 S21       29.91R
WACO-MCGREGOR  CLEAR     84  66  54 S12       29.93R
HILLSBORO      CLEAR     84  67  56 SE15      29.91S
CORSICANA      CLEAR     83  72  69 S14       29.93R
MEXIA          CLEAR     82  73  75 S10       29.92S
HEARNE           N/A     82  72  73 SE8       29.93S
CAMERON        CLEAR     83  71  67 S9        29.93R
TEMPLE         CLEAR     82  66  57 S17       29.92S
KILLEEN        CLEAR     82  70  65 SE14G22   29.93R
KILLEEN-SKYLRK CLEAR     84  66  54 S10G21    29.93S
FORT HOOD      CLEAR     86  68  54 SE10G20   29.93S
GATESVILLE     CLEAR     84  68  58 S9        29.94S
HAMILTON       CLEAR     84  67  58 S17G23    29.94R
LAMPASAS       CLEAR     83  71  65 S8        29.93S
$$

TXZ095>097-106>112-122>126-135>138-148>153-164>167-020600-
EAST TEXAS

CITY           SKY/WX    TMP DP  RH WIND       PRES   REMARKS
PARIS          CLEAR     79  64  61 S9        29.93R
SULPHUR SPRNGS CLEAR     83  71  67 S10       29.94R
MOUNT PLEASANT CLEAR     81  72  72 SE9       29.94R
GILMER         CLEAR     82  75  78 S6        29.95R
MINEOLA        CLEAR     82  75  78 SE7G16    29.93S
TYLER          CLEAR     82  74  76 S12       29.93R
LONGVIEW       CLEAR     81  74  79 S8        29.93S
MARSHALL       CLEAR     82  77  86 S7        29.97R
ATHENS         CLEAR     81  72  74 S8        29.92F
PALESTINE      CLEAR     81  74  77 SE6       29.95S
JACKSONVILLE   CLEAR     80  75  85 S9        29.97S
HENDERSON      CLEAR     80  74  82 S6        29.95S
NACOGDOCHES    CLEAR     79  75  89 S8        29.95S
LUFKIN         CLEAR     80  75  84 SE6       29.95F
$$

SUPPLEMENTAL OBSERVATIONS (CENTRAL)

CITY           SKY/WX    TMP DP  RH WIND       PRES   REMARKS
LAKE TEXOMA      N/A     84  66  54 SE9         N/A
CADDO GRASSLND   N/A     82  66  57 S10         N/A
PAT MAYSE LAKE   N/A     81  68  65 SE12        N/A
PALESTINE        N/A     81  73  78 S8          N/A
LAKE LIMESTONE   N/A     81  72  74 S6          N/A
MCGREGOR         N/A     84  68  58 S15         N/A
TEMPLE           N/A     82  68  61 S12         N/A
$$

SUPPLEMENTAL OBSERVATIONS (WEST)

CITY           SKY/WX    TMP DP  RH WIND       PRES   REMARKS
MILLERS CREEK    N/A    N/A N/A N/A S16G24      N/A
POSSUM KINGDOM   N/A     84  64  51 S13G21      N/A
LBJ GRASSLAND    N/A     84  66  54 SE12        N/A
GRANBURY         N/A     88  66  48 S16         N/A  HX  90
COMANCHE         N/A     84  66  54 S13         N/A
HAMBY            N/A     86  61  42 S18         N/A
IVIE RESERVOIR   N/A     84  63  48 SE9         N/A
COLORADO BEND    N/A     82  66  57 S12G20      N/A
$$

SUPPLEMENTAL OBSERVATIONS (EAST)

CITY           SKY/WX    TMP DP  RH WIND       PRES   REMARKS
CLARKSVILLE      N/A     81  72  74 S7          N/A
TEXARKANA        N/A     79  73  83 S2          N/A
LINDEN           N/A     81  73  78 S2          N/A
CADDO LAKE       N/A     81  75  83 S2          N/A
GILMER           N/A     82  73  74 S6          N/A
HENDERSON        N/A     81  75  83 S8          N/A
N SABINE NF      N/A     79  73  83 MISG        N/A
S SABINE NF      N/A     79  75  89 E1          N/A
$$

SUPPLEMENTAL OBSERVATIONS ARE A COLLECTION OF AUTOMATED INSTRUMENTS
THAT ARE MAINTAINED BY A VARIETY OF FEDERAL AND STATE AGENCIES.
CERTAIN ELEMENTS...SUCH AS HUMIDITY VALUES AND SUSTAINED WIND
SPEEDS...MAY BE APPROXIMATED.